Blacksburg, VA

5:41 PM EDT on September 25, 2017 (GMT -0400)
Virginia Tech

Weather History for KBCB - April, 2012

Change the Weather History Date:

Sunday, April 22, 2012

  Actual Average Record
Temperature  
Mean Temperature 44 °F 53 °F  
Max Temperature 50 °F 65 °F 85 °F (1985)
Min Temperature 38 °F 40 °F 25 °F (1983)
Degree Days  
Heating Degree Days 21 12  
Month to date heating degree days 265 341  
Since 1 July heating degree days 4169 5116  
Cooling Degree Days 0 0  
Month to date cooling degree days 0 0  
Year to date cooling degree days 0 0  
Moisture  
Dew Point 48 °F    
Average Humidity 91    
Maximum Humidity 100    
Minimum Humidity 82    
Precipitation  
Precipitation 0.33 in 0.12 in 3.41 in (1992)
Month to date precipitation 3.24 2.55  
Year to date precipitation 12.69 12.08  
Snow  
Snow 0.00 in - - ()
Month to date snowfall 0.0  
Since 1 July snowfall 10.0  
Snow Depth 0.00 in    
Sea Level Pressure  
Sea Level Pressure 29.69 in    
Wind  
Wind Speed 5 mph (NW)    
Max Wind Speed 15 mph    
Max Gust Speed 18 mph    
Visibility 9 miles    
Events Rain    
T = Trace of Precipitation, MM = Missing Value Source: NWS Daily Summary

Daily Weather History Graph

Daily Weather History Graph

Search for Another Location

Airport or City:

Trip Planner

Search our weather history database for the weather conditions in past years. The results will help you decide how hot, cold, wet, or windy it might be!

Date:

Astronomy

Apr. 22, 2012 Rise Set
Actual Time 6:37 AM EDT 8:03 PM EDT
Civil Twilight 6:09 AM EDT 8:30 PM EDT
Nautical Twilight 5:37 AM EDT 9:03 PM EDT
Astronomical Twilight 5:02 AM EDT 9:38 PM EDT
Moon 7:09 AM EDT (4/22) 9:36 PM EDT (4/22)
Length of Visible Light 14h 20m
Length of Day
13h 26m
New Moon, 2% of the Moon is Illuminated
Apr 22
New Moon
Apr 29
First Quarter
May 5
Full
May 12
Last Quarter
May 20
New

Hourly Weather History & Observations

Time (EDT) Temp. Windchill Dew Point Humidity Pressure Visibility Wind Dir Wind Speed Gust Speed Precip Events Conditions
12:35 AM 51.8 °F - 51.8 °F 100% 29.82 in 10.0 mi Calm Calm - N/A   Overcast
12:55 AM 53.6 °F - 53.6 °F 100% 29.82 in 10.0 mi North 4.6 mph - 0.01 in Rain Light Rain
1:15 AM 53.6 °F - 51.8 °F 94% 29.82 in 10.0 mi Calm Calm - N/A Rain Light Rain
1:35 AM 53.6 °F - 51.8 °F 94% 29.82 in 10.0 mi Calm Calm - N/A Rain Light Rain
1:55 AM 51.8 °F - 51.8 °F 100% 29.81 in 10.0 mi Calm Calm - N/A Rain Light Rain
2:15 AM 51.8 °F - 51.8 °F 100% 29.80 in 10.0 mi NNE 3.5 mph - N/A   Overcast
2:35 AM 51.8 °F - 51.8 °F 100% 29.79 in 10.0 mi Calm Calm - 0.02 in Rain Light Rain
2:55 AM 51.8 °F - 51.8 °F 100% 29.80 in 10.0 mi Calm Calm - 0.03 in Rain Light Rain
3:15 AM 51.8 °F - 51.8 °F 100% 29.79 in 10.0 mi Calm Calm - 0.03 in Rain Rain
3:35 AM 51.8 °F - 51.8 °F 100% 29.79 in 10.0 mi North 4.6 mph - 0.06 in Rain Light Rain
3:55 AM 51.8 °F - 51.8 °F 100% 29.78 in 10.0 mi NNE 3.5 mph - 0.08 in Rain Rain
4:15 AM 50.0 °F - 50.0 °F 100% 29.77 in 10.0 mi Calm Calm - 0.02 in Rain Rain
4:35 AM 50.0 °F - 50.0 °F 100% 29.76 in 10.0 mi Calm Calm - 0.02 in Rain Rain
4:55 AM 50.0 °F - 50.0 °F 100% 29.76 in 10.0 mi Calm Calm - 0.03 in   Drizzle
5:15 AM 50.0 °F - 50.0 °F 100% 29.77 in 7.0 mi NW 4.6 mph - 0.04 in Rain Rain
5:35 AM 50.0 °F - 50.0 °F 100% 29.76 in 10.0 mi North 3.5 mph - 0.05 in Rain Light Rain
5:55 AM 48.2 °F - 48.2 °F 100% 29.76 in 10.0 mi WNW 3.5 mph - 0.06 in Rain Light Rain
6:15 AM 48.2 °F - 48.2 °F 100% 29.76 in 10.0 mi Calm Calm - 0.01 in Rain Rain
6:35 AM 48.2 °F - 48.2 °F 100% 29.75 in 10.0 mi North 3.5 mph - 0.02 in Rain Rain
6:55 AM 48.2 °F - 48.2 °F 100% 29.75 in 10.0 mi Calm Calm - 0.02 in   Overcast
7:15 AM 48.2 °F - 48.2 °F 100% 29.74 in 10.0 mi Calm Calm - N/A   Overcast
7:35 AM 50.0 °F - 50.0 °F 100% 29.75 in 7.0 mi Calm Calm - 0.01 in Rain Rain
7:55 AM 48.2 °F - 48.2 °F 100% 29.75 in 10.0 mi Calm Calm - 0.02 in Rain Rain
8:15 AM 50.0 °F - 50.0 °F 100% 29.74 in 10.0 mi NNW 3.5 mph - N/A   Drizzle
8:35 AM 50.0 °F - 50.0 °F 100% 29.74 in 10.0 mi North 3.5 mph - N/A   Overcast
8:55 AM 50.0 °F - 50.0 °F 100% 29.74 in 10.0 mi North 5.8 mph - N/A Rain Rain
9:15 AM 50.0 °F - 50.0 °F 100% 29.73 in 7.0 mi Calm Calm - 0.01 in   Drizzle
9:35 AM 50.0 °F - 50.0 °F 100% 29.73 in 10.0 mi North 4.6 mph - 0.01 in   Light Drizzle
9:55 AM 50.0 °F - 50.0 °F 100% 29.73 in 1.5 mi Calm Calm - 0.01 in   Heavy Drizzle
10:15 AM 50.0 °F - 50.0 °F 100% 29.72 in 1.5 mi North 4.6 mph - 0.01 in Rain Heavy Rain
10:35 AM 50.0 °F - 50.0 °F 100% 29.72 in 2.0 mi NNW 5.8 mph - 0.01 in   Drizzle
10:55 AM 50.0 °F - 50.0 °F 100% 29.71 in 10.0 mi North 4.6 mph - 0.01 in   Overcast
11:15 AM 51.8 °F - 50.0 °F 94% 29.70 in 10.0 mi North 6.9 mph - N/A   Overcast
11:35 AM 51.8 °F - 50.0 °F 94% 29.70 in 10.0 mi North 5.8 mph - N/A   Overcast
11:55 AM 51.8 °F - 50.0 °F 94% 29.69 in 10.0 mi North 6.9 mph - N/A   Overcast
12:15 PM 51.8 °F - 50.0 °F 94% 29.67 in 10.0 mi North 4.6 mph - 0.01 in   Overcast
12:35 PM 51.8 °F - 50.0 °F 94% 29.66 in 10.0 mi NW 9.2 mph - 0.01 in   Overcast
12:55 PM 51.8 °F - 50.0 °F 94% 29.66 in 10.0 mi NW 6.9 mph - 0.01 in   Overcast
1:15 PM 51.8 °F - 50.0 °F 94% 29.65 in 10.0 mi NNW 4.6 mph - N/A   Overcast
1:35 PM 51.8 °F - 50.0 °F 94% 29.64 in 7.0 mi NW 6.9 mph - N/A   Overcast
1:55 PM 50.0 °F - 50.0 °F 100% 29.64 in 4.0 mi NW 8.1 mph - N/A Rain Light Rain
2:15 PM 51.8 °F - 51.8 °F 100% 29.63 in 3.0 mi NW 5.8 mph - N/A   Drizzle
2:35 PM 50.0 °F - 50.0 °F 100% 29.63 in 3.0 mi WNW 3.5 mph - N/A   Drizzle
2:55 PM 51.8 °F - 50.0 °F 94% 29.62 in 7.0 mi NW 9.2 mph - N/A   Drizzle
3:15 PM 50.0 °F - 50.0 °F 100% 29.62 in 10.0 mi NW 8.1 mph - N/A   Light Drizzle
3:35 PM 50.0 °F - 48.2 °F 94% 29.61 in 10.0 mi WNW 8.1 mph - N/A Rain Light Rain
3:55 PM 48.2 °F - 48.2 °F 100% 29.60 in 7.0 mi WNW 9.2 mph - N/A Rain Rain
4:15 PM 48.2 °F - 48.2 °F 100% 29.60 in 7.0 mi WNW 6.9 mph - 0.01 in Rain Rain
4:35 PM 48.2 °F - 48.2 °F 100% 29.61 in 10.0 mi WNW 6.9 mph - 0.02 in Rain Rain
4:55 PM 48.2 °F - 46.4 °F 93% 29.61 in 7.0 mi WNW 6.9 mph - 0.02 in Rain Rain
5:15 PM 46.4 °F 41.9 °F 46.4 °F 100% 29.61 in 10.0 mi WNW 9.2 mph - 0.01 in   Drizzle
5:35 PM 46.4 °F 41.9 °F 46.4 °F 100% 29.62 in 10.0 mi WNW 9.2 mph 16.1 mph 0.01 in Rain Light Rain
5:55 PM 46.4 °F 41.9 °F 46.4 °F 100% 29.62 in 10.0 mi WNW 9.2 mph - 0.01 in   Light Drizzle
6:15 PM 46.4 °F 43.5 °F 44.6 °F 93% 29.62 in 10.0 mi WNW 5.8 mph - N/A   Overcast
6:35 PM 46.4 °F 42.9 °F 44.6 °F 93% 29.63 in 10.0 mi NW 6.9 mph - N/A   Drizzle
6:55 PM 46.4 °F 44.3 °F 44.6 °F 93% 29.63 in 10.0 mi West 4.6 mph - N/A   Light Drizzle
7:15 PM 44.6 °F 40.2 °F 42.8 °F 93% 29.63 in 10.0 mi NW 8.1 mph - N/A Rain Light Rain
7:35 PM 44.6 °F 40.2 °F 42.8 °F 93% 29.63 in 10.0 mi NNW 8.1 mph 16.1 mph N/A   Overcast
7:55 PM 44.6 °F 40.2 °F 42.8 °F 93% 29.63 in 10.0 mi WNW 8.1 mph - N/A Rain Light Rain
8:15 PM 44.6 °F 42.2 °F 42.8 °F 93% 29.63 in 10.0 mi WNW 4.6 mph - N/A   Overcast
8:35 PM 44.6 °F 41.4 °F 41.0 °F 87% 29.63 in 10.0 mi WNW 5.8 mph - N/A   Overcast
8:55 PM 44.6 °F 40.2 °F 41.0 °F 87% 29.64 in 10.0 mi WNW 8.1 mph - N/A   Overcast
9:15 PM 42.8 °F 37.5 °F 41.0 °F 93% 29.64 in 10.0 mi WNW 9.2 mph - N/A   Overcast
9:35 PM 42.8 °F 38.0 °F 41.0 °F 93% 29.64 in 10.0 mi WNW 8.1 mph - N/A Rain Light Rain
9:55 PM 42.8 °F 37.5 °F 39.2 °F 87% 29.64 in 10.0 mi NW 9.2 mph - N/A   Overcast
10:15 PM 42.8 °F 37.5 °F 39.2 °F 87% 29.64 in 10.0 mi WNW 9.2 mph - N/A   Overcast
10:35 PM 42.8 °F 39.3 °F 39.2 °F 87% 29.64 in 10.0 mi WNW 5.8 mph - N/A   Overcast
10:55 PM 42.8 °F 38.6 °F 39.2 °F 87% 29.63 in 10.0 mi WNW 6.9 mph - N/A   Overcast
11:15 PM 42.8 °F 37.5 °F 39.2 °F 87% 29.62 in 10.0 mi NW 9.2 mph - N/A   Overcast
11:35 PM 42.8 °F 37.5 °F 39.2 °F 87% 29.62 in 10.0 mi WNW 9.2 mph 17.3 mph N/A   Overcast
11:55 PM 42.8 °F 35.4 °F 37.4 °F 81% 29.60 in 10.0 mi NW 15.0 mph 18.4 mph N/A   Overcast